Location: Chmeln�
(49.6483°N, 14.9871°E)
Time: 02:32:41
(UTC+00:00)

Cosmos 1766 - Pass Details

Date: 18 September 2020
Orbit: 522 x 544 km, 82.5° (Epoch: 24 October)

Event Time Altitude Azimuth Distance (km) Brightness Sun altitude
Exits shadow 19:34:04 47° 21° (NNE) 719 3.9 -23.4°
Drops below altitude 10° 19:36:58 10° 12° (NNE) 1,803 6.2 -23.8°
Sets 19:39:08 0° 11° (NNE) 2,703 7.1 -24.1°
